Showing default

OMNI-L2, 52771

Orbit data source: Space-Track

OMNI-L2, 52771 is a payload satellite owned by OmniSpace (US) in SSO that was launched on Wed, 25 May 2022 UTC via an FALCON 9 launch vehicle from the Air Force Eastern Test Range (AFETR). Payload-class satellites include a variety of spacecraft equipped with specific instruments for various scientific and technological missions. These include communications satellites like Starlink; space stations such as the ISS; scientific satellites like the Hubble; Earth observation satellites from companies like Planet Labs, Umbra, and HawkEye 360; GPS; miniature CubeSats for education and research; and military/defense satellites.

Loading next visibility...
Identifier
52771, 2022-057AR
Orbit
SSO
Country
Flag of USUS
Related business
Manufacturer
NANAV/THALES
Mission
Operational Commercial Communications
Bus & Motor
CUBESAT 12U, Unknown motor
Mass
~20 kg wet, ~20 kg dry
Launch date (UTC)
2022-05-25 (4 years ago)
Launch vehicle
FALCON 9
Launch site
Air Force Eastern Test Range (AFETR)
Object type
Payload
Rocket body
Debris
Shape & HBR
Box + 2 Pan, 0.5 m
Radar Cross Section
0.126 m², Medium (>0.1 m² and < 1m²)

Expand to show TLE details & history
Last TLE update: 22 hours ago

TLE from 22 hours ago
0 OMNI-L2
1 52771U 22057AR  25348.68296861  .00002267  00000-0  30100-3 0  9990
2 52771  97.4966  58.2926 0006369 198.8365 161.2614 14.80681016193088
Epoch: 2025-12-14T16:23Z
TLE epoch observation values (Epoch: 2025-12-14T16:23:28.487Z)
Latitude
-0.00002°
Longitude
88.83154°
Altitude
634.436 km
Speed
7.539 km/s
True Right ascension
03h 53m 10s
True Declination
0° 00' 00"
Sunlit
Object was in full shadow at epoch
Visualization orbit readout
Latitude
Unknown
Longitude
Unknown
Altitude
Unknown
Speed
Unknown
Apparent Right ascension
Unknown
Apparent Declination
Unknown
Sunlit
N/A
Visualization observer readout
Local Sidereal Time
13:18:46
Azimuth
Unknown
Elevation
Unknown
Doppler factor
Unknown
Orbital elements
Apogee altitude
628.657 km
Perigee altitude
619.738 km
Semi-major axis
7,002.335 km
Eccentricity
0.00064
Inclination
97.4966°
RAAN
58.2926°
Arg. of periapsis
198.8365°
True anomaly
161.28483°
Mean anomaly
161.2614°
Eccentric anomaly
161.27312°
Mean motion
3.70407 °/min
Orbital period
97.19 mins
BSTAR
0.000301
Loading maneuver chart data...
Computing Atmospheric mass density...

Documentation

Showing up to 5 results
|